カタログに戻る

TITAN 3C TRANSTAGE DEB

LostMEO
NORAD 43512·DEBRIS·🇺🇸 United States

打ち上げ Feb 9, 1969 から Cape Canaveral Space Force Station

Loading…

次のパス (今後24時間)

TLE

古いSource: Space-Track

元期: Jan 10, 2026, 02:08 UTC

1 43512U 69013Q   26010.08904223 -.00000114  00000-0  00000-0 0  9998
2 43512   0.7931 139.3031 1083873  16.3162 209.9406  0.95012286  1752

AllMySatでTITAN 3C TRANSTAGE DEBをリアルタイム追跡

Download on the App Store